GW0571 Weather Reports


time (UTC)temp
C
wind
direction
speed
KPH
gust
KPH
rain 1hr
cm
rain 24hr
cm
rain mn
cm
humidity
%
barometer
mb
20260901235401 22 129 0.0 0.0 0.00 2.59 2.59 96
20260901234856 22 129 0.0 0.0 0.00 2.59 2.59 96
20260901234350 22 129 0.0 0.0 0.00 2.59 2.59 96 1015.2
20260901233845 22 129 0.0 0.0 0.00 2.59 2.59 96 1015.2
20260901233341 22 129 0.0 0.0 0.00 2.59 2.59 96 1015.2
20260901232836 22 166 0.0 1.6 0.00 2.59 2.59 95 1015.2
20260901232331 23 205 0.0 1.6 0.00 2.59 2.59 95 1015.2
20260901231827 23 333 0.0 0.0 0.00 2.59 2.59 94 1015.2
20260901231323 23 333 0.0 0.0 0.00 2.59 2.59 93 1015.2
20260901230820 23 214 0.0 0.0 0.00 2.59 2.59 92 1015.2
20260901230319 24 224 0.0 1.6 0.00 2.59 2.59 91 1015.2
20260901225815 24 134 0.0 3.2 0.00 2.59 2.59 91 1015.2
20260901225314 25 89 0.0 0.0 0.00 2.59 2.59 89 1015.2
20260901224809 26 242 0.0 0.0 0.00 2.59 2.59 87 1015.4
20260901224306 26 242 0.0 0.0 0.00 2.59 2.59 86 1015.2
20260901223801 27 293 0.0 1.6 0.00 2.59 2.59 83 1015.0
20260901223256 26 257 0.0 1.6 0.00 2.59 2.59 83 1015.1
20260901222752 26 202 0.0 1.6 0.00 2.59 2.59 85 1015.1
20260901222248 26 246 0.0 1.6 0.00 2.59 2.59 85 1015.0
20260901221744 25 6 0.0 3.2 0.00 2.59 2.59 87 1015.2
20260901221239 25 309 0.0 3.2 0.00 2.59 2.59 85 1015.0
20260901220739 25 315 3.2 8.0 0.00 2.59 2.59 85 1015.3
20260901220233 26 317 3.2 4.8 0.00 2.59 2.59 85 1015.4
20260901215731 26 324 6.4 6.4 0.00 2.59 2.59 84 1015.2
20260901215232 26 293 0.0 1.6 0.00 2.59 2.59 86 1015.3
20260901214730 25 359 3.2 4.8 0.00 2.59 2.59 87 1015.0
20260901214223 25 336 0.0 3.2 0.00 2.59 2.59 89 1015.2
20260901213718 25 326 3.2 3.2 0.00 2.59 2.59 87 1015.1
20260901213213 26 260 0.0 6.4 0.00 2.59 2.59 84 1015.0
20260901212712 26 265 1.6 3.2 0.00 2.59 2.59 80 1015.0
20260901212208 26 232 6.4 8.0 0.00 2.59 2.59 81 1015.0
20260901211708 25 242 0.0 3.2 0.00 2.59 2.59 86 1015.0
20260901211205 25 327 3.2 4.8 0.00 2.59 2.59 85 1014.9
20260901210700 26 315 3.2 4.8 0.00 2.59 2.59 82 1014.8
20260901210156 26 316 4.8 6.4 0.00 2.59 2.59 83 1014.8
20260901205651 26 321 3.2 4.8 0.00 2.59 2.59 84 1014.8
20260901205146 26 299 0.0 4.8 0.00 2.59 2.59 86 1014.8
20260901204641 25 236 8.0 8.0 0.00 2.59 2.59 86 1015.1
20260901204137 25 315 0.0 6.4 0.00 2.59 2.59 88 1015.1
20260901203637 25 304 0.0 3.2 0.00 2.59 2.59 90 1015.2
20260901203132 25 256 3.2 4.8 0.00 2.59 2.59 89 1015.0
20260901202631 25 25 0.0 3.2 0.00 2.59 2.59 90 1015.0
20260901202127 25 129 0.0 1.6 0.00 2.59 2.59 92 1015.2
20260901201623 25 336 0.0 0.0 0.00 2.59 2.59 92 1015.2
20260901201122 25 322 0.0 3.2 0.00 2.59 2.59 92 1015.4
20260901200622 25 326 0.0 4.8 0.00 2.59 2.59 91 1015.3
20260901200117 25 62 0.0 1.6 0.00 2.59 2.59 92 1015.2
20260901195615 25 37 0.0 1.6 0.00 2.59 2.59 93 1015.1
20260901195115 25 314 0.0 3.2 0.00 2.59 2.59 93 1015.2
20260901194610 24 325 0.0 3.2 0.00 2.59 2.59 94 1015.4
20260901194105 24 309 0.0 1.6 0.00 2.59 2.59 95 1015.1
20260901193601 24 313 1.6 3.2 0.00 2.59 2.59 95 1015.3
20260901193055 24 180 0.0 0.0 0.00 2.59 2.59 92 1015.3
20260901192550 25 180 0.0 0.0 0.00 2.59 2.59 91 1015.4
20260901192046 25 180 0.0 0.0 0.00 2.59 2.59 91 1015.2
20260901191542 24 130 0.0 1.6 0.00 2.59 2.59 91 1015.1
20260901191038 25 201 1.6 4.8 0.00 2.59 2.59 90 1015.1
20260901190533 24 255 1.6 6.4 0.00 2.59 2.59 91 1015.1
20260901190032 24 229 4.8 4.8 0.00 2.59 2.59 91 1015.2
20260901185531 24 226 3.2 8.0 0.00 2.59 2.59 90 1015.2
20260901185030 25 255 4.8 4.8 0.00 2.59 2.59 90 1015.3
20260901184525 24 245 9.7 11.3 0.00 2.59 2.59 90 1015.0
20260901184021 24 242 4.8 11.3 0.00 2.59 2.59 92 1015.3
20260901183515 23 238 4.8 8.0 0.00 2.59 2.59 93 1015.0
20260901183011 23 260 4.8 4.8 0.00 2.59 2.59 96 1015.3
20260901182506 23 277 1.6 6.4 0.00 2.59 2.59 96 1015.0
20260901182001 22 235 4.8 6.4 0.00 2.59 2.59 96 1015.0
20260901181500 22 239 3.2 6.4 0.00 2.59 2.59 96 1015.2
20260901181000 22 240 4.8 4.8 0.00 2.59 2.59 96 1015.0
20260901180459 22 254 3.2 6.4 0.00 2.59 2.59 96 1014.9
20260901175957 22 230 0.0 1.6 0.00 2.59 2.59 96 1014.8
20260901175452 22 141 0.0 3.2 0.00 2.59 2.59 96 1014.9
20260901174947 22 247 1.6 6.4 0.00 2.59 2.59 96 1014.8
20260901174443 22 248 3.2 6.4 0.00 2.59 2.59 96 1014.8
20260901173939 22 248 3.2 4.8 0.00 2.59 2.59 96 1014.9
20260901173433 22 67 3.2 4.8 0.00 2.59 2.59 96 1014.8
20260901172930 22 115 1.6 3.2 0.00 2.59 2.59 96 1015.0
20260901172425 22 264 1.6 4.8 0.00 2.59 2.59 96 1014.9
20260901171923 22 93 1.6 4.8 0.00 2.59 2.59 96 1014.7
20260901171422 21 252 3.2 4.8 0.00 2.59 2.59 96 1014.9
20260901170920 21 236 1.6 3.2 0.00 2.59 2.59 96 1014.9
20260901170416 21 146 0.0 6.4 0.00 2.59 2.59 96 1014.9
20260901165915 21 127 1.6 3.2 0.00 2.59 2.59 96 1014.8
20260901165410 21 227 1.6 4.8 0.00 2.59 2.59 96 1015.1
20260901164907 21 102 0.0 1.6 0.00 2.59 2.59 96 1015.1
20260901164407 21 205 0.0 3.2 0.00 2.59 2.59 96 1015.0
20260901163907 21 249 0.0 1.6 0.00 2.59 2.59 96 1015.1
20260901163356 21 129 0.0 3.2 0.00 2.59 2.59 96 1015.0
20260901162851 21 174 0.0 3.2 0.00 2.59 2.59 96 1015.1
20260901162349 21 315 0.0 0.0 0.00 2.59 2.59 96 1015.3
20260901161844 20 153 0.0 4.8 0.00 2.59 2.59 96 1015.2
20260901161338 20 211 1.6 3.2 0.00 2.59 2.59 96 1015.1
20260901160833 20 230 1.6 3.2 0.00 2.59 2.59 96 1015.1
20260901160330 20 230 0.0 0.0 0.00 2.59 2.59 96 1015.2
20260901155829 20 230 0.0 0.0 0.00 2.59 2.59 96 1015.2
20260901155323 20 142 0.0 1.6 0.00 2.59 2.59 96 1015.2
20260901154821 20 119 0.0 3.2 0.00 2.59 2.59 96 1015.2
20260901154319 20 124 0.0 1.6 0.00 2.59 2.59 96 1015.4
20260901153814 21 139 0.0 1.6 0.00 2.59 2.59 96 1015.4
20260901153314 20 142 0.0 1.6 0.00 2.59 2.59 96 1015.4
20260901152813 20 170 0.0 1.6 0.00 2.59 2.59 96 1015.3
20260901152312 20 142 0.0 0.0 0.00 2.59 2.59 96 1015.1
20260901151808 20 142 0.0 1.6 0.00 2.59 2.59 96 1015.3
20260901151302 20 217 0.0 1.6 0.00 2.59 2.59 96 1015.4
20260901150802 20 44 0.0 1.6 0.00 2.59 2.59 96 1015.3
20260901150300 20 157 0.0 1.6 0.00 2.59 2.59 96 1015.3
20260901145757 20 180 0.0 3.2 0.00 2.59 2.59 96 1015.1
20260901145251 20 254 1.6 3.2 0.00 2.59 2.59 96 1015.2
20260901144747 20 182 0.0 4.8 0.00 2.59 2.59 96 1015.0
20260901144243 20 247 3.2 4.8 0.05 2.59 2.59 96 1015.1
20260901143738 20 130 0.0 4.8 0.05 2.59 2.59 96 1015.1
20260901143234 20 175 1.6 3.2 0.05 2.59 2.59 96 1015.2
20260901142731 20 170 0.0 3.2 0.05 2.57 2.57 96 1015.1
20260901142229 20 229 0.0 3.2 0.05 2.57 2.57 96 1015.1
20260901141725 20 228 3.2 4.8 0.00 2.57 2.57 96 1014.9
20260901141225 20 139 0.0 4.8 0.05 2.57 2.57 96 1015.4
20260901140724 20 173 0.0 9.7 0.05 2.57 2.57 96 1015.3
20260901140222 20 131 3.2 4.8 0.71 2.54 2.54 96 1015.3
20260901135718 20 144 0.0 4.8 0.89 2.54 2.54 96 1015.4
20260901135212 20 232 1.6 6.4 0.66 2.39 2.39 96 1015.3
20260901134708 20 127 0.0 4.8 0.53 2.39 2.39 96 1015.2
20260901134203 20 253 1.6 4.8 0.00 2.29 2.29 96 1015.3
20260901133702 20 139 1.6 6.4 0.18 2.29 2.29 96 1015.2
20260901133201 20 158 1.6 8.0 0.84 2.29 2.29 96 1015.1
20260901132701 20 213 4.8 4.8 1.32 2.26 2.26 96 1015.4
20260901132155 20 153 0.0 12.9 2.11 2.16 2.16 96 1015.9
20260901131655 20 161 1.6 3.2 2.03 1.98 1.98 96 1015.7
20260901131155 20 322 0.0 1.6 1.50 1.80 1.80 96 1015.7
20260901130650 20 259 1.6 6.4 0.53 1.60 1.60 96 1015.7
20260901130148 20 264 0.0 3.2 0.05 1.52 1.52 96 1015.7
20260901125647 20 207 0.0 3.2 0.00 1.52 1.52 96 1015.4
20260901125142 20 230 3.2 4.8 0.23 1.52 1.52 96 1015.4
20260901124637 20 218 0.0 4.8 0.79 1.50 1.50 96 1015.6
20260901124137 20 203 0.0 4.8 0.61 1.40 1.40 96 1015.7
20260901123632 20 163 1.6 4.8 0.84 1.40 1.40 96 1015.8
20260901123131 20 76 0.0 6.4 1.75 1.35 1.35 96 1015.7
20260901122630 20 139 1.6 4.8 2.11 1.22 1.22 96 1016.1
20260901122125 19 138 0.0 4.8 1.85 1.02 1.02 96 1016.1
20260901121620 19 112 0.0 3.2 1.45 0.86 0.86 96 1016.2
20260901121115 19 273 3.2 3.2 1.02 0.71 0.71 96 1016.1
20260901120615 18 223 1.6 3.2 1.50 0.61 0.61 96 1016.1
20260901120110 18 142 0.0 1.6 1.37 0.48 0.48 96 1015.8
20260901115605 18 334 1.6 3.2 0.71 0.38 0.38 96 1015.8
20260901115102 18 263 0.0 3.2 0.00 0.25 0.25 96 1015.9
20260901114558 18 134 0.0 3.2 0.36 0.25 0.25 96 1015.5
20260901114057 18 108 3.2 3.2 0.48 0.25 0.25 96 1015.5
20260901113555 18 158 4.8 6.4 0.18 0.18 0.18 96 1015.8
20260901113046 18 345 0.0 3.2 0.48 0.18 0.18 96 1016.0
20260901112545 18 113 0.0 3.2 0.43 0.15 0.15 96 1015.7
20260901112040 18 317 0.0 3.2 0.13 0.10 0.10 96 1015.8
20260901111539 18 224 0.0 3.2 0.13 0.08 0.08 96 1015.5
20260901111037 18 142 0.0 1.6 0.05 0.08 0.08 96 1015.2
20260901110533 18 209 0.0 1.6 0.00 0.05 0.05 96 1015.2
20260901110029 18 129 0.0 3.2 0.00 0.05 0.05 96 1015.2
20260901105526 18 110 0.0 3.2 0.00 0.05 0.05 96 1015.2
20260901105024 18 44 0.0 3.2 0.00 0.05 0.05 96 1015.1
20260901104521 18 157 1.6 3.2 0.00 0.05 0.05 96 1015.2
20260901104016 18 347 0.0 3.2 0.00 0.05 0.05 96 1015.3
20260901103516 18 50 0.0 0.0 0.00 0.05 0.05 96 1015.4
20260901103012 18 105 0.0 1.6 0.00 0.05 0.05 96 1015.3
20260901102506 18 203 0.0 3.2 0.00 0.05 0.05 96 1015.3
20260901102000 18 6 0.0 0.0 0.00 0.05 0.05 96 1015.2
20260901101455 18 113 0.0 3.2 0.05 0.05 0.05 96 1015.1
20260901100950 18 145 0.0 3.2 0.05 0.05 0.05 96 1015.0
20260901100444 18 60 0.0 1.6 0.00 0.05 0.05 96 1015.2
20260901095944 18 113 0.0 1.6 0.00 0.05 0.05 96 1015.3
20260901095443 17 19 0.0 1.6 0.00 0.05 0.05 96 1015.4
20260901094935 18 37 0.0 1.6 0.00 0.05 0.05 96 1015.3
20260901094436 18 230 0.0 3.2 0.00 0.05 0.05 96 1015.1
20260901093935 18 131 0.0 1.6 0.00 0.05 0.05 96 1015.3
20260901093430 18 38 0.0 3.2 0.00 0.05 0.05 96 1015.3
20260901092925 18 157 0.0 1.6 0.00 0.05 0.05 96 1015.7
20260901092421 18 145 0.0 1.6 0.00 0.05 0.05 96 1015.3
20260901091917 18 129 0.0 1.6 0.00 0.05 0.05 96 1015.2
20260901091416 18 89 0.0 1.6 0.00 0.05 0.05 96 1015.5
20260901090912 18 142 0.0 1.6 0.00 0.05 0.05 96 1015.4
20260901090411 18 0 0.0 1.6 0.00 0.05 0.05 96 1015.4
20260901085907 18 125 3.2 3.2 0.00 0.05 0.05 96 1015.6
20260901085402 18 227 1.6 3.2 0.00 0.05 0.05 96 1015.7
20260901084859 18 147 0.0 3.2 0.00 0.05 0.05 96 1015.8
20260901084354 18 111 0.0 1.6 0.00 0.05 0.05 96 1016.0
20260901083850 18 240 0.0 3.2 0.00 0.05 0.05 96 1015.9
20260901083350 18 135 0.0 1.6 0.00 0.05 0.05 96 1015.9
20260901082848 18 124 0.0 0.0 0.00 0.05 0.05 96 1016.0
20260901082344 18 135 0.0 1.6 0.05 0.05 0.05 96 1016.1
20260901081838 18 217 0.0 3.2 0.13 0.05 0.05 96 1016.3
20260901081334 18 6 1.6 3.2 0.05 0.05 0.05 96 1016.1
20260901080834 18 193 0.0 3.2 0.00 0.03 0.03 96 1016.1
20260901080334 18 139 0.0 3.2 0.05 0.03 0.03 96 1016.2
20260901075828 18 98 0.0 1.6 0.05 0.03 0.03 96 1016.2
20260901075323 17 173 0.0 1.6 0.05 0.03 0.03 96 1016.3
20260901074819 17 175 0.0 0.0 0.05 0.00 0.00 96 1016.3
20260901074313 17 175 0.0 0.0 0.05 0.00 0.00 96 1016.4
20260901073808 18 175 0.0 0.0 0.00 0.00 0.00 96 1016.1
20260901073304 18 175 0.0 0.0 0.00 0.00 0.00 96 1016.1
20260901072800 18 175 0.0 3.2 0.00 0.00 0.00 96 1016.3
20260901072259 18 150 0.0 1.6 0.00 0.00 0.00 96 1016.1
20260901071754 17 157 0.0 1.6 0.00 0.00 0.00 96 1016.2
20260901071253 17 139 0.0 1.6 0.00 0.00 0.00 96 1016.3
20260901070752 17 217 0.0 0.0 0.00 0.00 0.00 96 1016.2
20260901070248 17 217 0.0 0.0 0.00 0.00 0.00 96 1016.3
20260901065747 17 217 0.0 1.6 0.00 0.00 0.00 96 1016.2
20260901065243 17 217 0.0 1.6 0.00 0.00 0.00 96 1016.3
20260901064739 17 230 0.0 0.0 0.00 0.00 0.00 96 1016.3
20260901064235 17 230 0.0 0.0 0.00 0.00 0.00 96 1016.4
20260901063732 17 230 0.0 0.0 0.00 0.00 0.00 96 1016.2
20260901063227 17 230 0.0 0.0 0.00 0.00 0.00 96 1016.4
20260901062723 17 230 0.0 0.0 0.00 0.00 0.00 96 1016.3
20260901062219 17 230 0.0 0.0 0.00 0.00 0.00 96 1016.3
20260901061715 17 230 0.0 0.0 0.00 0.00 0.00 96 1016.5
20260901061214 17 230 0.0 0.0 0.00 0.00 0.00 96 1016.5
20260901060709 17 230 0.0 0.0 0.00 0.00 0.00 96 1016.5
20260901060205 17 230 0.0 1.6 0.00 0.00 0.00 96 1016.6
20260901055700 17 89 0.0 0.0 0.00 0.00 0.00 96 1016.7
20260901055157 17 89 0.0 0.0 0.00 0.00 0.00 96 1016.8
20260901054654 17 89 0.0 0.0 0.00 0.00 0.00 96 1016.9
20260901054149 17 89 0.0 0.0 0.00 0.00 0.00 96 1016.7
20260901053645 17 142 0.0 1.6 0.00 0.00 0.00 96 1016.8
20260901053141 17 89 0.0 1.6 0.00 0.00 0.00 96 1017.2
20260901052636 17 66 0.0 0.0 0.00 0.00 0.00 96 1017.2
20260901052131 17 129 0.0 0.0 0.00 0.00 0.00 96 1017.3
20260901051631 17 129 0.0 0.0 0.00 0.00 0.00 96 1017.0
20260901051130 17 129 0.0 1.6 0.00 0.00 0.00 96 1016.9
20260901050625 17 135 0.0 1.6 0.00 0.00 0.00 96 1016.9
20260901050121 17 142 0.0 0.0 0.00 0.00 0.00 96 1017.0
20260901045615 17 142 0.0 0.0 0.00 0.00 0.00 96 1017.2
20260901045110 17 142 0.0 0.0 0.00 0.00 0.00 96 1017.2
20260901044606 17 142 0.0 0.0 0.00 0.00 0.00 96 1017.3
20260901044101 17 142 0.0 1.6 0.00 0.00 0.00 96 1017.0
20260901043557 17 142 0.0 0.0 0.00 0.00 0.00 96 1017.5
20260901043052 17 129 0.0 1.6 0.00 0.00 0.00 96 1017.2
20260901042551 17 135 0.0 1.6 0.00 0.00 0.00 96 1017.4
20260901042047 18 129 0.0 0.0 0.00 0.00 0.00 96 1017.2
20260901041542 18 142 0.0 1.6 0.00 0.00 0.00 96 1017.4
20260901041037 18 129 0.0 0.0 0.00 0.00 0.00 96 1017.2
20260901040536 18 129 0.0 1.6 0.00 0.00 0.00 96 1017.0
20260901040031 18 131 0.0 1.6 0.00 0.00 0.00 96 1017.2
20260901035528 18 124 0.0 1.6 0.00 1.04 1.04 96 1017.2
20260901035027 18 130 1.6 1.6 0.00 1.04 1.04 96 1017.2
20260901034522 18 130 0.0 1.6 0.00 1.04 1.04 96 1017.0
20260901034016 18 129 0.0 1.6 0.00 1.04 1.04 96 1017.2
20260901033515 18 129 0.0 0.0 0.00 1.04 1.04 96 1017.2
20260901033010 18 129 0.0 0.0 0.00 1.04 1.04 96 1017.3
20260901032504 18 129 0.0 0.0 0.00 1.04 1.04 96 1017.2
20260901032003 18 129 0.0 0.0 0.00 1.04 1.04 96 1017.0
20260901031459 18 129 0.0 1.6 0.00 1.04 1.04 96 1017.4
20260901030954 18 129 0.0 0.0 0.00 1.04 1.04 96 1017.3
20260901030449 18 129 0.0 1.6 0.00 1.04 1.04 96 1017.2
20260901025948 18 128 0.0 1.6 0.00 1.04 1.04 96 1017.2
20260901025444 18 129 0.0 1.6 0.00 1.04 1.04 96 1017.4
20260901024943 18 130 0.0 1.6 0.00 1.04 1.04 96 1017.3
20260901024438 18 124 0.0 1.6 0.00 1.04 1.04 96 1017.4
20260901023936 18 120 1.6 1.6 0.00 1.04 1.04 96 1017.4
20260901023431 18 75 0.0 1.6 0.00 1.04 1.04 96 1017.6
20260901022926 18 113 0.0 0.0 0.00 1.04 1.04 96 1017.5
20260901022422 18 113 0.0 1.6 0.00 1.04 1.04 96 1017.6
20260901021916 18 129 0.0 1.6 0.00 1.04 1.04 96 1017.6
20260901021412 18 126 0.0 3.2 0.00 1.04 1.04 96 1017.7
20260901020907 18 202 0.0 1.6 0.00 1.04 1.04 96 1017.7
20260901020403 18 315 0.0 0.0 0.00 1.04 1.04 96 1017.7
20260901015902 18 315 0.0 0.0 0.00 1.04 1.04 96 1017.6
20260901015358 18 315 0.0 1.6 0.00 1.04 1.04 96 1017.8
20260901014857 18 230 0.0 0.0 0.00 1.04 1.04 96 1017.9
20260901014354 18 269 0.0 1.6 0.00 1.04 1.04 96 1017.9
20260901013849 18 219 0.0 3.2 0.00 1.04 1.04 96 1017.6
20260901013345 18 144 0.0 3.2 0.00 1.04 1.04 96 1017.8
20260901012840 18 132 0.0 4.8 0.00 1.04 1.04 96 1017.9
20260901012335 18 217 0.0 3.2 0.00 1.04 1.04 96 1017.8
20260901011831 18 129 0.0 1.6 0.00 1.04 1.04 96 1017.7
20260901011326 18 147 1.6 3.2 0.05 1.04 1.04 96 1017.8
20260901010819 18 129 0.0 1.6 0.36 1.04 1.04 96 1017.5
20260901010314 18 105 0.0 3.2 0.30 1.04 1.04 96 1017.6
20260901005813 18 166 0.0 3.2 0.05 0.99 0.99 96 1017.6
20260901005308 18 89 0.0 1.6 0.05 0.99 0.99 96 1017.6
20260901004808 18 217 0.0 1.6 0.00 0.99 0.99 96 1017.6
20260901004303 18 223 0.0 1.6 0.05 0.99 0.99 96 1017.5
20260901003802 18 217 0.0 1.6 0.05 0.99 0.99 96 1017.6
20260901003257 18 144 3.2 4.8 0.00 0.97 0.97 96 1017.6
20260901002750 18 130 0.0 1.6 0.00 0.97 0.97 96 1017.4
20260901002246 18 115 0.0 3.2 0.00 0.97 0.97 96 1017.4
20260901001741 18 112 0.0 3.2 0.05 0.97 0.97 96 1017.5
20260901001236 18 269 0.0 0.0 0.05 0.97 0.97 96 1017.4
20260901000726 18 74 3.2 3.2 0.05 0.97 0.97 96 1017.3
20260901000221 18 142 0.0 1.6 0.05 0.94 0.94 96 1017.3
20260831235719 18 322 0.0 1.6 0.05 0.94 0.94 96 1017.3